Location: Huberhof
(49.2050°N, 7.4980°E)
Time: 01:30:46
(UTC+00:00)

Okean-O - Pass Details

Date: 29 October 2020
Orbit: 638 x 641 km, 98.2° (Epoch: 26 November)

Event Time Altitude Azimuth Distance (km) Brightness Sun altitude
Rises 17:59:11 0° 168° (SSE) 2,935 5.9 -17.8°
Reaches altitude 10° 18:01:23 10° 170° (S) 2,030 5.1 -18.1°
Maximum altitude 18:05:48 76° 256° (WSW) 665 2.7 -18.9°
Drops below altitude 10° 18:10:16 10° 343° (NNW) 2,045 5.4 -19.6°
Sets 18:12:29 0° 345° (NNW) 2,959 6.3 -20.0°
